Weather in Fokino

Russia / Bryansk Oblast     53°27′19″N   34°24′57″E
temp.,
°C
wind,
m/s
gust,
m/s
humid.,
%
clouds,
%
prec.,
mm/h
press.,
hPa
HPBL,
m
11 may, tue
tue1100:00+5ne310810 0.0 1025190
03:00+5n310820 0.0 1026215
06:00+6nne412815 0.0 1025305
09:00+12ne59615 0.0 1024523
12:00+18ne58524 0.0 1023846
15:00+20ene68535 0.0 10221319
18:00+19ene58684 0.3 10211162
21:00+13se389781 2.0 1023362
12 may, wed
wed1200:00+10ese399627 0.0 1024376
03:00+7ese310925 0.0 1025302
06:00+6e26932 0.0 1025170
09:00+11ene35701 0.0 1025593
12:00+16ene4546100 0.0 10221585
15:00+13ene5669100 0.1 1020762
18:00+12ene4576100 0.4 1018776
21:00+8e28974 0.4 1017189
13 may, thu
thu1300:00+8ene3119497 0.0 1016333
03:00+8ese4119498 0.3 1015630
06:00+8ese412915 0.0 1016669
09:00+12se5971100 0.1 10151212
12:00+15sse585293 0.2 10141944
15:00+17s574321 0.3 10142167
18:00+16s355572 0.0 10131442
21:00+9s11822 0.0 101511
14 may, fri
fri1400:00+8se2386100 0.0 101556
03:00+8ese3787100 0.0 1015144
06:00+10ese31083100 0.0 1015271
09:00+15ese51177100 0.1 1013537
12:00+21se5959100 0.1 10111434
15:00+20sse597657 2.7 10101175
18:00+19sse498294 1.4 1008707
21:00+16se4129196 4.3 1009354
15 may, sat
sat1500:00+14se3698100 2.1 1008145
03:00+13se279929 3.3 1008165
06:00+13sse389825 0.4 1007234
09:00+16ssw478230 0.4 1007655
12:00+19sw566147 0.1 10091448
15:00+19sw5761100 0.3 10091457
18:00+18wsw476430 0.1 10091257
21:00+13ssw23845 0.1 101056